Crew | Aerofun Virtual



 METAR AND TAF INFORMATION
METAR FOR CYBQ
ADDS - METARS form results

(1935 UTC 21 July 2019)
Data provider http://aviationweather.gov/metar/data/
 
METAR text: CYBQ 211900Z AUTO 29007KT 260V020 9SM CLR 24/10 A3007 RMK SLP190 DENSITY ALT 1900FT
Conditions at: CYBQ (TADOULE LAKE , MB, CA) observed 1900 UTC 21 July 2019
Temperature: 24.0°C (75°F)
Dewpoint: 10.0°C (50°F) [RH = 41%]
Pressure (altimeter): 30.07 inches Hg (1018.4 mb)
[Sea-level pressure: 1019.0 mb]
Winds: from the WNW (290 degrees) at 8 MPH (7 knots; 3.6 m/s)
Visibility: 9 miles (14 km)
Ceiling: at least 12,000 feet AGL
Clouds: sky clear below 12,000 feet AGL
Weather: no significant weather observed at this time

 AIRPORT MAP

 RUNWAY INFORMATION
Runway 06 Runway length 3200 ft Runway width 100 ft
Runway elevation 0 ft Runway displaced threshold 0 ft Runway heading 0
Runway 24 Runway length 3200 ft Runway width 100 ft
Runway elevation 0 ft Runway displaced threshold 0 ft Runway heading 0
Runway 07 Runway length 0 ft Runway width 0 ft
Runway elevation 923 ft Runway displaced threshold 0 ft Runway heading 0
Runway 25 Runway length 0 ft Runway width 0 ft
Runway elevation 872 ft Runway displaced threshold 0 ft Runway heading 0

 AIRPORT FREQUENCIES

 AIRPORT NEAR NAVIGATION AIDS
Type NDB Name Tadoule Lake Frequency 389 KHZ